Time,TemperatureF,DewpointF,PressureIn,WindDirection,WindDirectionDegrees,WindSpeedMPH,WindSpeedGustMPH,Humidity,HourlyPrecipIn,Conditions,Clouds,dailyrainin,SoftwareType,DateUTC
2016-02-05 00:14:00,57.8,57.5,-100.00,North,-9999,-999.9,-999.0,99,-99.99,,,-99.99,WSDL version 456,2016-02-05 05:14:00,
2016-02-05 00:19:00,57.9,57.5,-100.00,North,-9999,-999.9,-999.0,99,-99.99,,,-99.99,WSDL version 456,2016-02-05 05:19:00,
2016-02-05 00:24:00,57.9,57.6,-100.00,North,-9999,-999.9,-999.0,99,-99.99,,,-99.99,WSDL version 456,2016-02-05 05:24:00,
2016-02-05 00:29:00,57.9,57.6,-100.00,North,-9999,-999.9,-999.0,99,-99.99,,,-99.99,WSDL version 456,2016-02-05 05:29:00,
2016-02-05 00:34:00,57.9,57.6,-100.00,North,-9999,-999.9,-999.0,99,-99.99,,,-99.99,WSDL version 456,2016-02-05 05:34:00,
2016-02-05 00:39:00,57.9,57.6,-100.00,North,-9999,-999.9,-999.0,99,-99.99,,,-99.99,WSDL version 456,2016-02-05 05:39:00,
2016-02-05 00:44:00,57.7,57.4,-100.00,North,-9999,-999.9,-999.0,99,-99.99,,,-99.99,WSDL version 456,2016-02-05 05:44:00,
2016-02-05 00:49:00,57.7,57.4,-100.00,North,-9999,-999.9,-999.0,99,-99.99,,,-99.99,WSDL version 456,2016-02-05 05:49:00,
2016-02-05 00:54:00,57.7,57.3,-100.00,North,-9999,-999.9,-999.0,98,-99.99,,,-99.99,WSDL version 456,2016-02-05 05:54:00,
2016-02-05 00:59:00,57.7,57.1,-100.00,North,-9999,-999.9,-999.0,98,-99.99,,,-99.99,WSDL version 456,2016-02-05 05:59:00,
2016-02-05 01:04:00,57.7,57.1,-100.00,North,-9999,-999.9,-999.0,98,-99.99,,,-99.99,WSDL version 456,2016-02-05 06:04:00,
2016-02-05 01:14:00,57.4,56.3,-100.00,North,-9999,-999.9,-999.0,96,-99.99,,,-99.99,WSDL version 456,2016-02-05 06:14:00,
2016-02-05 01:19:00,57.4,56.1,-100.00,North,-9999,-999.9,-999.0,96,-99.99,,,-99.99,WSDL version 456,2016-02-05 06:19:00,
2016-02-05 01:24:00,57.3,55.9,-100.00,North,-9999,-999.9,-999.0,95,-99.99,,,-99.99,WSDL version 456,2016-02-05 06:24:00,
2016-02-05 01:29:00,57.2,55.5,-100.00,North,-9999,-999.9,-999.0,94,-99.99,,,-99.99,WSDL version 456,2016-02-05 06:29:00,
2016-02-05 01:34:00,57.1,55.2,-100.00,North,-9999,-999.9,-999.0,93,-99.99,,,-99.99,WSDL version 456,2016-02-05 06:34:00,
2016-02-05 01:39:00,57.0,54.9,-100.00,North,-9999,-999.9,-999.0,93,-99.99,,,-99.99,WSDL version 456,2016-02-05 06:39:00,
2016-02-05 01:44:00,57.0,54.6,-100.00,North,-9999,-999.9,-999.0,92,-99.99,,,-99.99,WSDL version 456,2016-02-05 06:44:00,
2016-02-05 01:54:00,56.8,53.9,-100.00,North,-9999,-999.9,-999.0,90,-99.99,,,-99.99,WSDL version 456,2016-02-05 06:54:00,
2016-02-05 01:59:00,56.6,53.6,-100.00,North,-9999,-999.9,-999.0,90,-99.99,,,-99.99,WSDL version 456,2016-02-05 06:59:00,
2016-02-05 02:14:00,55.9,52.4,-100.00,North,-9999,-999.9,-999.0,88,-99.99,,,-99.99,WSDL version 456,2016-02-05 07:14:00,
2016-02-05 02:19:00,55.9,52.1,-100.00,North,-9999,-999.9,-999.0,87,-99.99,,,-99.99,WSDL version 456,2016-02-05 07:19:00,
2016-02-05 02:24:00,55.7,51.8,-100.00,North,-9999,-999.9,-999.0,87,-99.99,,,-99.99,WSDL version 456,2016-02-05 07:24:00,
2016-02-05 02:29:00,55.6,51.3,-100.00,North,-9999,-999.9,-999.0,86,-99.99,,,-99.99,WSDL version 456,2016-02-05 07:29:00,
2016-02-05 02:34:00,55.4,51.1,-100.00,North,-9999,-999.9,-999.0,86,-99.99,,,-99.99,WSDL version 456,2016-02-05 07:34:00,
2016-02-05 02:39:00,55.2,51.0,-100.00,North,-9999,-999.9,-999.0,86,-99.99,,,-99.99,WSDL version 456,2016-02-05 07:39:00,
2016-02-05 02:44:00,55.1,50.8,-100.00,North,-9999,-999.9,-999.0,86,-99.99,,,-99.99,WSDL version 456,2016-02-05 07:44:00,
2016-02-05 02:49:00,55.0,50.7,-100.00,North,-9999,-999.9,-999.0,86,-99.99,,,-99.99,WSDL version 456,2016-02-05 07:49:00,
2016-02-05 02:54:00,54.9,50.6,-100.00,North,-9999,-999.9,-999.0,86,-99.99,,,-99.99,WSDL version 456,2016-02-05 07:54:00,
2016-02-05 02:59:00,54.9,50.6,-100.00,North,-9999,-999.9,-999.0,86,-99.99,,,-99.99,WSDL version 456,2016-02-05 07:59:00,
2016-02-05 03:04:00,54.8,50.5,-100.00,North,-9999,-999.9,-999.0,86,-99.99,,,-99.99,WSDL version 456,2016-02-05 08:04:00,
2016-02-05 03:09:00,54.7,50.4,-100.00,North,-9999,-999.9,-999.0,86,-99.99,,,-99.99,WSDL version 456,2016-02-05 08:09:00,
2016-02-05 03:14:00,54.5,50.3,-100.00,North,-9999,-999.9,-999.0,86,-99.99,,,-99.99,WSDL version 456,2016-02-05 08:14:00,
2016-02-05 03:24:00,54.3,49.8,-100.00,North,-9999,-999.9,-999.0,85,-99.99,,,-99.99,WSDL version 456,2016-02-05 08:24:00,
2016-02-05 03:29:00,54.3,49.7,-100.00,North,-9999,-999.9,-999.0,84,-99.99,,,-99.99,WSDL version 456,2016-02-05 08:29:00,
2016-02-05 03:34:00,54.3,49.7,-100.00,North,-9999,-999.9,-999.0,84,-99.99,,,-99.99,WSDL version 456,2016-02-05 08:34:00,
2016-02-05 03:39:00,54.3,49.7,-100.00,North,-9999,-999.9,-999.0,84,-99.99,,,-99.99,WSDL version 456,2016-02-05 08:39:00,
2016-02-05 03:44:00,54.3,49.7,-100.00,North,-9999,-999.9,-999.0,84,-99.99,,,-99.99,WSDL version 456,2016-02-05 08:44:00,
2016-02-05 03:49:00,54.5,49.8,-100.00,North,-9999,-999.9,-999.0,84,-99.99,,,-99.99,WSDL version 456,2016-02-05 08:49:00,
2016-02-05 03:59:00,54.8,49.0,-100.00,North,-9999,-999.9,-999.0,81,-99.99,,,-99.99,WSDL version 456,2016-02-05 08:59:00,
2016-02-05 04:04:00,54.9,48.6,-100.00,North,-9999,-999.9,-999.0,79,-99.99,,,-99.99,WSDL version 456,2016-02-05 09:04:00,
2016-02-05 04:09:00,54.9,48.1,-100.00,North,-9999,-999.9,-999.0,78,-99.99,,,-99.99,WSDL version 456,2016-02-05 09:09:00,
2016-02-05 04:19:00,55.0,47.8,-100.00,North,-9999,-999.9,-999.0,77,-99.99,,,-99.99,WSDL version 456,2016-02-05 09:19:00,
2016-02-05 04:24:00,55.0,47.5,-100.00,North,-9999,-999.9,-999.0,76,-99.99,,,-99.99,WSDL version 456,2016-02-05 09:24:00,
2016-02-05 04:29:00,54.9,47.4,-100.00,North,-9999,-999.9,-999.0,76,-99.99,,,-99.99,WSDL version 456,2016-02-05 09:29:00,
2016-02-05 04:34:00,54.9,47.4,-100.00,North,-9999,-999.9,-999.0,76,-99.99,,,-99.99,WSDL version 456,2016-02-05 09:34:00,
2016-02-05 04:44:00,54.7,46.8,-100.00,North,-9999,-999.9,-999.0,75,-99.99,,,-99.99,WSDL version 456,2016-02-05 09:44:00,
2016-02-05 04:49:00,54.7,46.5,-100.00,North,-9999,-999.9,-999.0,74,-99.99,,,-99.99,WSDL version 456,2016-02-05 09:49:00,
2016-02-05 04:54:00,54.5,46.0,-100.00,North,-9999,-999.9,-999.0,73,-99.99,,,-99.99,WSDL version 456,2016-02-05 09:54:00,
2016-02-05 04:59:00,54.5,45.7,-100.00,North,-9999,-999.9,-999.0,72,-99.99,,,-99.99,WSDL version 456,2016-02-05 09:59:00,
2016-02-05 05:04:00,54.4,45.5,-100.00,North,-9999,-999.9,-999.0,72,-99.99,,,-99.99,WSDL version 456,2016-02-05 10:04:00,
2016-02-05 05:09:00,54.3,45.5,-100.00,North,-9999,-999.9,-999.0,72,-99.99,,,-99.99,WSDL version 456,2016-02-05 10:09:00,
2016-02-05 05:14:00,54.2,44.9,-100.00,North,-9999,-999.9,-999.0,71,-99.99,,,-99.99,WSDL version 456,2016-02-05 10:14:00,
2016-02-05 05:19:00,54.1,44.6,-100.00,North,-9999,-999.9,-999.0,70,-99.99,,,-99.99,WSDL version 456,2016-02-05 10:19:00,
2016-02-05 05:24:00,54.1,44.3,-100.00,North,-9999,-999.9,-999.0,69,-99.99,,,-99.99,WSDL version 456,2016-02-05 10:24:00,
2016-02-05 05:29:00,53.9,43.9,-100.00,North,-9999,-999.9,-999.0,69,-99.99,,,-99.99,WSDL version 456,2016-02-05 10:29:00,
2016-02-05 05:34:00,53.7,43.8,-100.00,North,-9999,-999.9,-999.0,69,-99.99,,,-99.99,WSDL version 456,2016-02-05 10:34:00,
2016-02-05 05:39:00,53.5,43.2,-100.00,North,-9999,-999.9,-999.0,68,-99.99,,,-99.99,WSDL version 456,2016-02-05 10:39:00,
2016-02-05 05:44:00,53.2,42.6,-100.00,North,-9999,-999.9,-999.0,67,-99.99,,,-99.99,WSDL version 456,2016-02-05 10:44:00,
2016-02-05 05:49:00,53.0,42.3,-100.00,North,-9999,-999.9,-999.0,67,-99.99,,,-99.99,WSDL version 456,2016-02-05 10:49:00,
2016-02-05 05:54:00,52.8,41.7,-100.00,North,-9999,-999.9,-999.0,66,-99.99,,,-99.99,WSDL version 456,2016-02-05 10:54:00,
2016-02-05 05:59:00,52.5,41.4,-100.00,North,-9999,-999.9,-999.0,66,-99.99,,,-99.99,WSDL version 456,2016-02-05 10:59:00,
2016-02-05 06:04:00,52.2,41.2,-100.00,North,-9999,-999.9,-999.0,66,-99.99,,,-99.99,WSDL version 456,2016-02-05 11:04:00,
2016-02-05 06:09:00,51.9,40.9,-100.00,North,-9999,-999.9,-999.0,66,-99.99,,,-99.99,WSDL version 456,2016-02-05 11:09:00,
2016-02-05 06:14:00,51.6,40.6,-100.00,North,-9999,-999.9,-999.0,66,-99.99,,,-99.99,WSDL version 456,2016-02-05 11:14:00,
2016-02-05 06:19:00,51.4,40.7,-100.00,North,-9999,-999.9,-999.0,67,-99.99,,,-99.99,WSDL version 456,2016-02-05 11:19:00,
2016-02-05 06:24:00,51.1,40.6,-100.00,North,-9999,-999.9,-999.0,67,-99.99,,,-99.99,WSDL version 456,2016-02-05 11:24:00,
2016-02-05 06:29:00,50.9,40.4,-100.00,North,-9999,-999.9,-999.0,67,-99.99,,,-99.99,WSDL version 456,2016-02-05 11:29:00,
2016-02-05 06:34:00,50.7,40.2,-100.00,North,-9999,-999.9,-999.0,67,-99.99,,,-99.99,WSDL version 456,2016-02-05 11:34:00,
2016-02-05 06:39:00,50.5,40.0,-100.00,North,-9999,-999.9,-999.0,67,-99.99,,,-99.99,WSDL version 456,2016-02-05 11:39:00,
2016-02-05 06:44:00,50.3,40.2,-100.00,North,-9999,-999.9,-999.0,68,-99.99,,,-99.99,WSDL version 456,2016-02-05 11:44:00,
2016-02-05 06:49:00,50.1,40.0,-100.00,North,-9999,-999.9,-999.0,68,-99.99,,,-99.99,WSDL version 456,2016-02-05 11:49:00,
2016-02-05 06:54:00,49.9,40.2,-100.00,North,-9999,-999.9,-999.0,69,-99.99,,,-99.99,WSDL version 456,2016-02-05 11:54:00,
2016-02-05 07:04:00,49.6,39.8,-100.00,North,-9999,-999.9,-999.0,69,-99.99,,,-99.99,WSDL version 456,2016-02-05 12:04:00,
2016-02-05 07:09:00,49.3,39.3,-100.00,North,-9999,-999.9,-999.0,68,-99.99,,,-99.99,WSDL version 456,2016-02-05 12:09:00,
2016-02-05 07:14:00,49.2,39.1,-100.00,North,-9999,-999.9,-999.0,68,-99.99,,,-99.99,WSDL version 456,2016-02-05 12:14:00,
2016-02-05 07:19:00,49.0,38.9,-100.00,North,-9999,-999.9,-999.0,68,-99.99,,,-99.99,WSDL version 456,2016-02-05 12:19:00,
2016-02-05 07:24:00,48.8,38.7,-100.00,North,-9999,-999.9,-999.0,68,-99.99,,,-99.99,WSDL version 456,2016-02-05 12:24:00,
2016-02-05 07:29:00,48.6,38.5,-100.00,North,-9999,-999.9,-999.0,68,-99.99,,,-99.99,WSDL version 456,2016-02-05 12:29:00,
2016-02-05 07:34:00,48.4,38.4,-100.00,North,-9999,-999.9,-999.0,68,-99.99,,,-99.99,WSDL version 456,2016-02-05 12:34:00,
2016-02-05 07:39:00,48.2,38.1,-100.00,North,-9999,-999.9,-999.0,68,-99.99,,,-99.99,WSDL version 456,2016-02-05 12:39:00,
2016-02-05 07:44:00,48.2,37.7,-100.00,North,-9999,-999.9,-999.0,67,-99.99,,,-99.99,WSDL version 456,2016-02-05 12:44:00,
2016-02-05 07:49:00,48.0,37.0,-100.00,North,-9999,-999.9,-999.0,65,-99.99,,,-99.99,WSDL version 456,2016-02-05 12:49:00,
2016-02-05 07:54:00,48.0,36.5,-100.00,North,-9999,-999.9,-999.0,64,-99.99,,,-99.99,WSDL version 456,2016-02-05 12:54:00,
2016-02-05 07:59:00,48.0,36.0,-100.00,North,-9999,-999.9,-999.0,63,-99.99,,,-99.99,WSDL version 456,2016-02-05 12:59:00,
2016-02-05 08:04:00,48.0,35.6,-100.00,North,-9999,-999.9,-999.0,62,-99.99,,,-99.99,WSDL version 456,2016-02-05 13:04:00,
2016-02-05 08:14:00,48.2,35.4,-100.00,North,-9999,-999.9,-999.0,61,-99.99,,,-99.99,WSDL version 456,2016-02-05 13:14:00,
2016-02-05 08:19:00,48.3,35.5,-100.00,North,-9999,-999.9,-999.0,61,-99.99,,,-99.99,WSDL version 456,2016-02-05 13:19:00,
2016-02-05 08:24:00,48.5,35.2,-100.00,North,-9999,-999.9,-999.0,60,-99.99,,,-99.99,WSDL version 456,2016-02-05 13:24:00,
2016-02-05 08:29:00,48.7,35.4,-100.00,North,-9999,-999.9,-999.0,60,-99.99,,,-99.99,WSDL version 456,2016-02-05 13:29:00,
2016-02-05 08:34:00,48.9,35.2,-100.00,North,-9999,-999.9,-999.0,59,-99.99,,,-99.99,WSDL version 456,2016-02-05 13:34:00,
2016-02-05 08:39:00,49.2,35.2,-100.00,North,-9999,-999.9,-999.0,58,-99.99,,,-99.99,WSDL version 456,2016-02-05 13:39:00,
2016-02-05 08:44:00,49.4,35.2,-100.00,North,-9999,-999.9,-999.0,58,-99.99,,,-99.99,WSDL version 456,2016-02-05 13:44:00,
2016-02-05 08:49:00,49.6,35.0,-100.00,North,-9999,-999.9,-999.0,57,-99.99,,,-99.99,WSDL version 456,2016-02-05 13:49:00,
2016-02-05 08:54:00,49.8,35.0,-100.00,North,-9999,-999.9,-999.0,57,-99.99,,,-99.99,WSDL version 456,2016-02-05 13:54:00,
2016-02-05 08:59:00,50.0,35.0,-100.00,North,-9999,-999.9,-999.0,56,-99.99,,,-99.99,WSDL version 456,2016-02-05 13:59:00,
2016-02-05 09:04:00,50.3,35.2,-100.00,North,-9999,-999.9,-999.0,56,-99.99,,,-99.99,WSDL version 456,2016-02-05 14:04:00,
2016-02-05 09:09:00,50.4,34.9,-100.00,North,-9999,-999.9,-999.0,55,-99.99,,,-99.99,WSDL version 456,2016-02-05 14:09:00,
2016-02-05 09:14:00,50.7,35.1,-100.00,North,-9999,-999.9,-999.0,55,-99.99,,,-99.99,WSDL version 456,2016-02-05 14:14:00,
2016-02-05 09:19:00,51.0,35.4,-100.00,North,-9999,-999.9,-999.0,55,-99.99,,,-99.99,WSDL version 456,2016-02-05 14:19:00,
2016-02-05 09:24:00,51.2,35.6,-100.00,North,-9999,-999.9,-999.0,55,-99.99,,,-99.99,WSDL version 456,2016-02-05 14:24:00,
2016-02-05 09:29:00,51.6,35.9,-100.00,North,-9999,-999.9,-999.0,55,-99.99,,,-99.99,WSDL version 456,2016-02-05 14:29:00,
2016-02-05 09:34:00,51.8,35.7,-100.00,North,-9999,-999.9,-999.0,54,-99.99,,,-99.99,WSDL version 456,2016-02-05 14:34:00,
2016-02-05 09:39:00,52.0,35.4,-100.00,North,-9999,-999.9,-999.0,53,-99.99,,,-99.99,WSDL version 456,2016-02-05 14:39:00,
2016-02-05 09:44:00,52.1,35.1,-100.00,North,-9999,-999.9,-999.0,52,-99.99,,,-99.99,WSDL version 456,2016-02-05 14:44:00,
2016-02-05 09:49:00,52.3,35.2,-100.00,North,-9999,-999.9,-999.0,52,-99.99,,,-99.99,WSDL version 456,2016-02-05 14:49:00,
2016-02-05 09:54:00,52.5,35.0,-100.00,North,-9999,-999.9,-999.0,51,-99.99,,,-99.99,WSDL version 456,2016-02-05 14:54:00,
2016-02-05 09:59:00,52.8,35.2,-100.00,North,-9999,-999.9,-999.0,51,-99.99,,,-99.99,WSDL version 456,2016-02-05 14:59:00,
2016-02-05 10:04:00,53.1,35.4,-100.00,North,-9999,-999.9,-999.0,51,-99.99,,,-99.99,WSDL version 456,2016-02-05 15:04:00,
2016-02-05 10:09:00,53.3,35.7,-100.00,North,-9999,-999.9,-999.0,51,-99.99,,,-99.99,WSDL version 456,2016-02-05 15:09:00,
2016-02-05 10:14:00,53.5,35.4,-100.00,North,-9999,-999.9,-999.0,50,-99.99,,,-99.99,WSDL version 456,2016-02-05 15:14:00,
2016-02-05 10:19:00,53.7,35.6,-100.00,North,-9999,-999.9,-999.0,50,-99.99,,,-99.99,WSDL version 456,2016-02-05 15:19:00,
2016-02-05 10:24:00,53.9,35.7,-100.00,North,-9999,-999.9,-999.0,50,-99.99,,,-99.99,WSDL version 456,2016-02-05 15:24:00,
2016-02-05 10:29:00,54.2,36.0,-100.00,North,-9999,-999.9,-999.0,50,-99.99,,,-99.99,WSDL version 456,2016-02-05 15:29:00,
2016-02-05 10:34:00,54.4,36.2,-100.00,North,-9999,-999.9,-999.0,50,-99.99,,,-99.99,WSDL version 456,2016-02-05 15:34:00,
2016-02-05 10:39:00,54.6,35.8,-100.00,North,-9999,-999.9,-999.0,49,-99.99,,,-99.99,WSDL version 456,2016-02-05 15:39:00,
2016-02-05 10:44:00,54.7,36.0,-100.00,North,-9999,-999.9,-999.0,49,-99.99,,,-99.99,WSDL version 456,2016-02-05 15:44:00,
2016-02-05 10:49:00,55.0,36.5,-100.00,North,-9999,-999.9,-999.0,50,-99.99,,,-99.99,WSDL version 456,2016-02-05 15:49:00,
2016-02-05 10:54:00,55.3,36.6,-100.00,North,-9999,-999.9,-999.0,49,-99.99,,,-99.99,WSDL version 456,2016-02-05 15:54:00,
2016-02-05 10:59:00,55.7,37.2,-100.00,North,-9999,-999.9,-999.0,50,-99.99,,,-99.99,WSDL version 456,2016-02-05 15:59:00,
2016-02-05 11:04:00,55.9,37.4,-100.00,North,-9999,-999.9,-999.0,50,-99.99,,,-99.99,WSDL version 456,2016-02-05 16:04:00,
2016-02-05 11:09:00,56.3,37.5,-100.00,North,-9999,-999.9,-999.0,49,-99.99,,,-99.99,WSDL version 456,2016-02-05 16:09:00,
2016-02-05 11:14:00,56.5,37.3,-100.00,North,-9999,-999.9,-999.0,49,-99.99,,,-99.99,WSDL version 456,2016-02-05 16:14:00,
2016-02-05 11:19:00,56.7,37.3,-100.00,North,-9999,-999.9,-999.0,48,-99.99,,,-99.99,WSDL version 456,2016-02-05 16:19:00,
2016-02-05 11:24:00,56.9,37.5,-100.00,North,-9999,-999.9,-999.0,48,-99.99,,,-99.99,WSDL version 456,2016-02-05 16:24:00,
2016-02-05 11:29:00,57.1,37.3,-100.00,North,-9999,-999.9,-999.0,48,-99.99,,,-99.99,WSDL version 456,2016-02-05 16:29:00,
2016-02-05 11:34:00,57.3,37.8,-100.00,North,-9999,-999.9,-999.0,48,-99.99,,,-99.99,WSDL version 456,2016-02-05 16:34:00,
2016-02-05 11:44:00,57.7,38.2,-100.00,North,-9999,-999.9,-999.0,48,-99.99,,,-99.99,WSDL version 456,2016-02-05 16:44:00,
2016-02-05 11:49:00,57.9,38.0,-100.00,North,-9999,-999.9,-999.0,47,-99.99,,,-99.99,WSDL version 456,2016-02-05 16:49:00,
2016-02-05 11:54:00,58.1,38.0,-100.00,North,-9999,-999.9,-999.0,47,-99.99,,,-99.99,WSDL version 456,2016-02-05 16:54:00,
2016-02-05 11:59:00,58.3,38.1,-100.00,North,-9999,-999.9,-999.0,47,-99.99,,,-99.99,WSDL version 456,2016-02-05 16:59:00,
2016-02-05 12:04:00,58.4,37.7,-100.00,North,-9999,-999.9,-999.0,46,-99.99,,,-99.99,WSDL version 456,2016-02-05 17:04:00,
2016-02-05 12:09:00,58.7,38.0,-100.00,North,-9999,-999.9,-999.0,46,-99.99,,,-99.99,WSDL version 456,2016-02-05 17:09:00,
2016-02-05 12:14:00,58.8,38.1,-100.00,North,-9999,-999.9,-999.0,46,-99.99,,,-99.99,WSDL version 456,2016-02-05 17:14:00,
2016-02-05 12:19:00,58.9,38.2,-100.00,North,-9999,-999.9,-999.0,46,-99.99,,,-99.99,WSDL version 456,2016-02-05 17:19:00,
2016-02-05 12:24:00,59.1,38.3,-100.00,North,-9999,-999.9,-999.0,46,-99.99,,,-99.99,WSDL version 456,2016-02-05 17:24:00,
2016-02-05 12:34:00,59.5,38.7,-100.00,North,-9999,-999.9,-999.0,46,-99.99,,,-99.99,WSDL version 456,2016-02-05 17:34:00,
2016-02-05 12:39:00,59.6,38.8,-100.00,North,-9999,-999.9,-999.0,46,-99.99,,,-99.99,WSDL version 456,2016-02-05 17:39:00,
2016-02-05 12:44:00,59.7,38.9,-100.00,North,-9999,-999.9,-999.0,46,-99.99,,,-99.99,WSDL version 456,2016-02-05 17:44:00,
2016-02-05 12:49:00,59.8,39.0,-100.00,North,-9999,-999.9,-999.0,46,-99.99,,,-99.99,WSDL version 456,2016-02-05 17:49:00,
2016-02-05 12:54:00,59.9,39.1,-100.00,North,-9999,-999.9,-999.0,46,-99.99,,,-99.99,WSDL version 456,2016-02-05 17:54:00,
2016-02-05 12:59:00,60.1,39.1,-100.00,North,-9999,-999.9,-999.0,46,-99.99,,,-99.99,WSDL version 456,2016-02-05 17:59:00,
2016-02-05 13:04:00,60.1,39.2,-100.00,North,-9999,-999.9,-999.0,46,-99.99,,,-99.99,WSDL version 456,2016-02-05 18:04:00,
2016-02-05 13:09:00,60.3,38.9,-100.00,North,-9999,-999.9,-999.0,45,-99.99,,,-99.99,WSDL version 456,2016-02-05 18:09:00,
2016-02-05 13:14:00,60.4,39.2,-100.00,North,-9999,-999.9,-999.0,45,-99.99,,,-99.99,WSDL version 456,2016-02-05 18:14:00,
2016-02-05 13:19:00,60.5,39.1,-100.00,North,-9999,-999.9,-999.0,45,-99.99,,,-99.99,WSDL version 456,2016-02-05 18:19:00,
2016-02-05 13:24:00,60.7,39.3,-100.00,North,-9999,-999.9,-999.0,45,-99.99,,,-99.99,WSDL version 456,2016-02-05 18:24:00,
2016-02-05 13:29:00,60.8,39.3,-100.00,North,-9999,-999.9,-999.0,45,-99.99,,,-99.99,WSDL version 456,2016-02-05 18:29:00,
2016-02-05 13:34:00,60.9,39.6,-100.00,North,-9999,-999.9,-999.0,45,-99.99,,,-99.99,WSDL version 456,2016-02-05 18:34:00,
2016-02-05 13:39:00,61.0,39.5,-100.00,North,-9999,-999.9,-999.0,45,-99.99,,,-99.99,WSDL version 456,2016-02-05 18:39:00,
2016-02-05 13:44:00,61.0,39.5,-100.00,North,-9999,-999.9,-999.0,45,-99.99,,,-99.99,WSDL version 456,2016-02-05 18:44:00,
2016-02-05 13:49:00,61.1,39.6,-100.00,North,-9999,-999.9,-999.0,45,-99.99,,,-99.99,WSDL version 456,2016-02-05 18:49:00,
2016-02-05 13:54:00,61.2,39.7,-100.00,North,-9999,-999.9,-999.0,45,-99.99,,,-99.99,WSDL version 456,2016-02-05 18:54:00,
2016-02-05 13:59:00,61.3,39.8,-100.00,North,-9999,-999.9,-999.0,45,-99.99,,,-99.99,WSDL version 456,2016-02-05 18:59:00,
2016-02-05 14:04:00,61.3,39.8,-100.00,North,-9999,-999.9,-999.0,45,-99.99,,,-99.99,WSDL version 456,2016-02-05 19:04:00,
2016-02-05 14:14:00,61.7,39.6,-100.00,North,-9999,-999.9,-999.0,44,-99.99,,,-99.99,WSDL version 456,2016-02-05 19:14:00,
2016-02-05 14:19:00,61.7,39.6,-100.00,North,-9999,-999.9,-999.0,44,-99.99,,,-99.99,WSDL version 456,2016-02-05 19:19:00,
2016-02-05 14:24:00,61.8,39.7,-100.00,North,-9999,-999.9,-999.0,44,-99.99,,,-99.99,WSDL version 456,2016-02-05 19:24:00,
2016-02-05 14:29:00,61.7,39.6,-100.00,North,-9999,-999.9,-999.0,44,-99.99,,,-99.99,WSDL version 456,2016-02-05 19:29:00,
2016-02-05 14:34:00,61.8,39.7,-100.00,North,-9999,-999.9,-999.0,44,-99.99,,,-99.99,WSDL version 456,2016-02-05 19:34:00,
2016-02-05 14:39:00,61.9,39.7,-100.00,North,-9999,-999.9,-999.0,44,-99.99,,,-99.99,WSDL version 456,2016-02-05 19:39:00,
2016-02-05 14:44:00,62.0,39.9,-100.00,North,-9999,-999.9,-999.0,44,-99.99,,,-99.99,WSDL version 456,2016-02-05 19:44:00,
2016-02-05 14:49:00,62.1,39.9,-100.00,North,-9999,-999.9,-999.0,44,-99.99,,,-99.99,WSDL version 456,2016-02-05 19:49:00,
2016-02-05 14:59:00,62.1,39.5,-100.00,North,-9999,-999.9,-999.0,43,-99.99,,,-99.99,WSDL version 456,2016-02-05 19:59:00,
2016-02-05 15:04:00,62.1,39.3,-100.00,North,-9999,-999.9,-999.0,43,-99.99,,,-99.99,WSDL version 456,2016-02-05 20:04:00,
2016-02-05 15:09:00,62.1,39.3,-100.00,North,-9999,-999.9,-999.0,43,-99.99,,,-99.99,WSDL version 456,2016-02-05 20:09:00,
2016-02-05 15:14:00,62.1,39.5,-100.00,North,-9999,-999.9,-999.0,43,-99.99,,,-99.99,WSDL version 456,2016-02-05 20:14:00,
2016-02-05 15:19:00,62.1,39.3,-100.00,North,-9999,-999.9,-999.0,43,-99.99,,,-99.99,WSDL version 456,2016-02-05 20:19:00,
2016-02-05 15:24:00,62.1,39.3,-100.00,North,-9999,-999.9,-999.0,43,-99.99,,,-99.99,WSDL version 456,2016-02-05 20:24:00,
2016-02-05 15:34:00,62.1,39.3,-100.00,North,-9999,-999.9,-999.0,43,-99.99,,,-99.99,WSDL version 456,2016-02-05 20:34:00,
2016-02-05 15:39:00,61.9,38.9,-100.00,North,-9999,-999.9,-999.0,43,-99.99,,,-99.99,WSDL version 456,2016-02-05 20:39:00,
2016-02-05 15:44:00,61.9,38.6,-100.00,North,-9999,-999.9,-999.0,42,-99.99,,,-99.99,WSDL version 456,2016-02-05 20:44:00,
2016-02-05 15:49:00,61.9,38.5,-100.00,North,-9999,-999.9,-999.0,42,-99.99,,,-99.99,WSDL version 456,2016-02-05 20:49:00,
2016-02-05 15:54:00,61.7,38.4,-100.00,North,-9999,-999.9,-999.0,42,-99.99,,,-99.99,WSDL version 456,2016-02-05 20:54:00,
2016-02-05 15:59:00,61.6,37.8,-100.00,North,-9999,-999.9,-999.0,41,-99.99,,,-99.99,WSDL version 456,2016-02-05 20:59:00,
2016-02-05 16:04:00,61.5,37.7,-100.00,North,-9999,-999.9,-999.0,41,-99.99,,,-99.99,WSDL version 456,2016-02-05 21:04:00,
2016-02-05 16:09:00,61.5,37.6,-100.00,North,-9999,-999.9,-999.0,41,-99.99,,,-99.99,WSDL version 456,2016-02-05 21:09:00,
2016-02-05 16:14:00,61.3,37.5,-100.00,North,-9999,-999.9,-999.0,41,-99.99,,,-99.99,WSDL version 456,2016-02-05 21:14:00,
2016-02-05 16:19:00,61.3,37.5,-100.00,North,-9999,-999.9,-999.0,41,-99.99,,,-99.99,WSDL version 456,2016-02-05 21:19:00,
2016-02-05 16:24:00,61.3,37.5,-100.00,North,-9999,-999.9,-999.0,41,-99.99,,,-99.99,WSDL version 456,2016-02-05 21:24:00,
2016-02-05 16:29:00,61.2,37.4,-100.00,North,-9999,-999.9,-999.0,41,-99.99,,,-99.99,WSDL version 456,2016-02-05 21:29:00,
2016-02-05 16:34:00,61.2,37.1,-100.00,North,-9999,-999.9,-999.0,41,-99.99,,,-99.99,WSDL version 456,2016-02-05 21:34:00,
2016-02-05 16:44:00,61.0,36.5,-100.00,North,-9999,-999.9,-999.0,40,-99.99,,,-99.99,WSDL version 456,2016-02-05 21:44:00,
2016-02-05 16:49:00,60.9,36.5,-100.00,North,-9999,-999.9,-999.0,40,-99.99,,,-99.99,WSDL version 456,2016-02-05 21:49:00,
2016-02-05 16:54:00,60.8,36.4,-100.00,North,-9999,-999.9,-999.0,40,-99.99,,,-99.99,WSDL version 456,2016-02-05 21:54:00,
2016-02-05 16:59:00,60.6,36.2,-100.00,North,-9999,-999.9,-999.0,40,-99.99,,,-99.99,WSDL version 456,2016-02-05 21:59:00,
2016-02-05 17:04:00,60.6,36.2,-100.00,North,-9999,-999.9,-999.0,40,-99.99,,,-99.99,WSDL version 456,2016-02-05 22:04:00,
2016-02-05 17:09:00,60.5,36.0,-100.00,North,-9999,-999.9,-999.0,40,-99.99,,,-99.99,WSDL version 456,2016-02-05 22:09:00,
2016-02-05 17:14:00,60.3,35.9,-100.00,North,-9999,-999.9,-999.0,40,-99.99,,,-99.99,WSDL version 456,2016-02-05 22:14:00,
2016-02-05 17:19:00,60.2,35.8,-100.00,North,-9999,-999.9,-999.0,40,-99.99,,,-99.99,WSDL version 456,2016-02-05 22:19:00,
2016-02-05 17:24:00,60.1,35.7,-100.00,North,-9999,-999.9,-999.0,40,-99.99,,,-99.99,WSDL version 456,2016-02-05 22:24:00,
2016-02-05 17:29:00,59.9,35.5,-100.00,North,-9999,-999.9,-999.0,40,-99.99,,,-99.99,WSDL version 456,2016-02-05 22:29:00,
2016-02-05 17:34:00,59.7,35.8,-100.00,North,-9999,-999.9,-999.0,41,-99.99,,,-99.99,WSDL version 456,2016-02-05 22:34:00,
2016-02-05 17:39:00,59.5,35.6,-100.00,North,-9999,-999.9,-999.0,41,-99.99,,,-99.99,WSDL version 456,2016-02-05 22:39:00,
2016-02-05 17:44:00,59.4,35.7,-100.00,North,-9999,-999.9,-999.0,41,-99.99,,,-99.99,WSDL version 456,2016-02-05 22:44:00,
2016-02-05 17:49:00,59.1,35.5,-100.00,North,-9999,-999.9,-999.0,41,-99.99,,,-99.99,WSDL version 456,2016-02-05 22:49:00,
2016-02-05 17:54:00,58.9,35.3,-100.00,North,-9999,-999.9,-999.0,41,-99.99,,,-99.99,WSDL version 456,2016-02-05 22:54:00,
2016-02-05 17:59:00,58.7,35.1,-100.00,North,-9999,-999.9,-999.0,41,-99.99,,,-99.99,WSDL version 456,2016-02-05 22:59:00,
2016-02-05 18:04:00,58.5,34.9,-100.00,North,-9999,-999.9,-999.0,41,-99.99,,,-99.99,WSDL version 456,2016-02-05 23:04:00,
2016-02-05 18:09:00,58.2,34.6,-100.00,North,-9999,-999.9,-999.0,41,-99.99,,,-99.99,WSDL version 456,2016-02-05 23:09:00,
2016-02-05 18:14:00,57.8,34.3,-100.00,North,-9999,-999.9,-999.0,41,-99.99,,,-99.99,WSDL version 456,2016-02-05 23:14:00,
2016-02-05 18:19:00,57.5,34.4,-100.00,North,-9999,-999.9,-999.0,42,-99.99,,,-99.99,WSDL version 456,2016-02-05 23:19:00,
2016-02-05 18:24:00,57.2,34.4,-100.00,North,-9999,-999.9,-999.0,42,-99.99,,,-99.99,WSDL version 456,2016-02-05 23:24:00,
2016-02-05 18:29:00,56.9,34.1,-100.00,North,-9999,-999.9,-999.0,42,-99.99,,,-99.99,WSDL version 456,2016-02-05 23:29:00,
2016-02-05 18:39:00,56.2,34.0,-100.00,North,-9999,-999.9,-999.0,43,-99.99,,,-99.99,WSDL version 456,2016-02-05 23:39:00,
2016-02-05 18:44:00,55.9,33.7,-100.00,North,-9999,-999.9,-999.0,43,-99.99,,,-99.99,WSDL version 456,2016-02-05 23:44:00,
2016-02-05 18:49:00,55.6,33.5,-100.00,North,-9999,-999.9,-999.0,43,-99.99,,,-99.99,WSDL version 456,2016-02-05 23:49:00,
2016-02-05 18:54:00,55.4,33.9,-100.00,North,-9999,-999.9,-999.0,44,-99.99,,,-99.99,WSDL version 456,2016-02-05 23:54:00,
2016-02-05 18:59:00,55.2,33.7,-100.00,North,-9999,-999.9,-999.0,44,-99.99,,,-99.99,WSDL version 456,2016-02-05 23:59:00,
2016-02-05 19:04:00,55.0,33.5,-100.00,North,-9999,-999.9,-999.0,44,-99.99,,,-99.99,WSDL version 456,2016-02-06 00:04:00,
2016-02-05 19:09:00,54.8,33.4,-100.00,North,-9999,-999.9,-999.0,44,-99.99,,,-99.99,WSDL version 456,2016-02-06 00:09:00,
2016-02-05 19:14:00,54.6,33.7,-100.00,North,-9999,-999.9,-999.0,45,-99.99,,,-99.99,WSDL version 456,2016-02-06 00:14:00,
2016-02-05 19:19:00,54.4,33.5,-100.00,North,-9999,-999.9,-999.0,45,-99.99,,,-99.99,WSDL version 456,2016-02-06 00:19:00,
2016-02-05 19:24:00,54.1,33.8,-100.00,North,-9999,-999.9,-999.0,46,-99.99,,,-99.99,WSDL version 456,2016-02-06 00:24:00,
2016-02-05 19:29:00,53.9,33.6,-100.00,North,-9999,-999.9,-999.0,46,-99.99,,,-99.99,WSDL version 456,2016-02-06 00:29:00,
2016-02-05 19:34:00,53.7,33.6,-100.00,North,-9999,-999.9,-999.0,46,-99.99,,,-99.99,WSDL version 456,2016-02-06 00:34:00,
2016-02-05 19:39:00,53.4,33.7,-100.00,North,-9999,-999.9,-999.0,47,-99.99,,,-99.99,WSDL version 456,2016-02-06 00:39:00,
2016-02-05 19:44:00,53.2,33.5,-100.00,North,-9999,-999.9,-999.0,47,-99.99,,,-99.99,WSDL version 456,2016-02-06 00:44:00,
2016-02-05 19:49:00,53.1,33.9,-100.00,North,-9999,-999.9,-999.0,48,-99.99,,,-99.99,WSDL version 456,2016-02-06 00:49:00,
2016-02-05 19:54:00,53.0,33.9,-100.00,North,-9999,-999.9,-999.0,48,-99.99,,,-99.99,WSDL version 456,2016-02-06 00:54:00,
2016-02-05 19:59:00,52.9,34.2,-100.00,North,-9999,-999.9,-999.0,49,-99.99,,,-99.99,WSDL version 456,2016-02-06 00:59:00,
2016-02-05 20:14:00,52.3,34.3,-100.00,North,-9999,-999.9,-999.0,50,-99.99,,,-99.99,WSDL version 456,2016-02-06 01:14:00,
2016-02-05 20:24:00,52.1,34.6,-100.00,North,-9999,-999.9,-999.0,51,-99.99,,,-99.99,WSDL version 456,2016-02-06 01:24:00,
2016-02-05 20:29:00,51.9,34.8,-100.00,North,-9999,-999.9,-999.0,52,-99.99,,,-99.99,WSDL version 456,2016-02-06 01:29:00,
2016-02-05 20:34:00,51.8,34.8,-100.00,North,-9999,-999.9,-999.0,52,-99.99,,,-99.99,WSDL version 456,2016-02-06 01:34:00,
2016-02-05 20:39:00,51.5,35.0,-100.00,North,-9999,-999.9,-999.0,53,-99.99,,,-99.99,WSDL version 456,2016-02-06 01:39:00,
2016-02-05 20:44:00,51.2,34.8,-100.00,North,-9999,-999.9,-999.0,53,-99.99,,,-99.99,WSDL version 456,2016-02-06 01:44:00,
2016-02-05 20:49:00,51.0,34.9,-100.00,North,-9999,-999.9,-999.0,54,-99.99,,,-99.99,WSDL version 456,2016-02-06 01:49:00,
2016-02-05 20:59:00,50.4,35.2,-100.00,North,-9999,-999.9,-999.0,56,-99.99,,,-99.99,WSDL version 456,2016-02-06 01:59:00,
2016-02-05 21:04:00,50.2,35.4,-100.00,North,-9999,-999.9,-999.0,57,-99.99,,,-99.99,WSDL version 456,2016-02-06 02:04:00,
2016-02-05 21:09:00,49.9,35.5,-100.00,North,-9999,-999.9,-999.0,57,-99.99,,,-99.99,WSDL version 456,2016-02-06 02:09:00,
2016-02-05 21:14:00,49.7,35.6,-100.00,North,-9999,-999.9,-999.0,58,-99.99,,,-99.99,WSDL version 456,2016-02-06 02:14:00,
2016-02-05 21:19:00,49.5,35.8,-100.00,North,-9999,-999.9,-999.0,59,-99.99,,,-99.99,WSDL version 456,2016-02-06 02:19:00,
2016-02-05 21:24:00,49.3,36.0,-100.00,North,-9999,-999.9,-999.0,60,-99.99,,,-99.99,WSDL version 456,2016-02-06 02:24:00,
2016-02-05 21:29:00,49.2,36.2,-100.00,North,-9999,-999.9,-999.0,61,-99.99,,,-99.99,WSDL version 456,2016-02-06 02:29:00,
2016-02-05 21:34:00,49.0,36.2,-100.00,North,-9999,-999.9,-999.0,61,-99.99,,,-99.99,WSDL version 456,2016-02-06 02:34:00,
2016-02-05 21:39:00,48.9,36.4,-100.00,North,-9999,-999.9,-999.0,62,-99.99,,,-99.99,WSDL version 456,2016-02-06 02:39:00,
2016-02-05 21:44:00,48.9,36.4,-100.00,North,-9999,-999.9,-999.0,62,-99.99,,,-99.99,WSDL version 456,2016-02-06 02:44:00,
2016-02-05 21:49:00,48.7,36.5,-100.00,North,-9999,-999.9,-999.0,62,-99.99,,,-99.99,WSDL version 456,2016-02-06 02:49:00,
2016-02-05 21:54:00,48.7,36.7,-100.00,North,-9999,-999.9,-999.0,63,-99.99,,,-99.99,WSDL version 456,2016-02-06 02:54:00,
2016-02-05 21:59:00,48.6,36.6,-100.00,North,-9999,-999.9,-999.0,63,-99.99,,,-99.99,WSDL version 456,2016-02-06 02:59:00,
2016-02-05 22:04:00,48.7,36.8,-100.00,North,-9999,-999.9,-999.0,63,-99.99,,,-99.99,WSDL version 456,2016-02-06 03:04:00,
2016-02-05 22:09:00,48.7,37.1,-100.00,North,-9999,-999.9,-999.0,64,-99.99,,,-99.99,WSDL version 456,2016-02-06 03:09:00,
2016-02-05 22:14:00,48.7,37.1,-100.00,North,-9999,-999.9,-999.0,64,-99.99,,,-99.99,WSDL version 456,2016-02-06 03:14:00,
2016-02-05 22:19:00,48.7,37.1,-100.00,North,-9999,-999.9,-999.0,64,-99.99,,,-99.99,WSDL version 456,2016-02-06 03:19:00,
2016-02-05 22:24:00,48.7,37.1,-100.00,North,-9999,-999.9,-999.0,64,-99.99,,,-99.99,WSDL version 456,2016-02-06 03:24:00,
2016-02-05 22:29:00,48.7,37.5,-100.00,North,-9999,-999.9,-999.0,65,-99.99,,,-99.99,WSDL version 456,2016-02-06 03:29:00,
2016-02-05 22:34:00,48.7,37.5,-100.00,North,-9999,-999.9,-999.0,65,-99.99,,,-99.99,WSDL version 456,2016-02-06 03:34:00,
2016-02-05 22:39:00,48.7,37.5,-100.00,North,-9999,-999.9,-999.0,65,-99.99,,,-99.99,WSDL version 456,2016-02-06 03:39:00,
2016-02-05 22:44:00,48.7,37.5,-100.00,North,-9999,-999.9,-999.0,65,-99.99,,,-99.99,WSDL version 456,2016-02-06 03:44:00,
2016-02-05 22:49:00,48.7,37.7,-100.00,North,-9999,-999.9,-999.0,66,-99.99,,,-99.99,WSDL version 456,2016-02-06 03:49:00,
2016-02-05 22:54:00,48.7,37.9,-100.00,North,-9999,-999.9,-999.0,66,-99.99,,,-99.99,WSDL version 456,2016-02-06 03:54:00,
2016-02-05 22:59:00,48.7,37.9,-100.00,North,-9999,-999.9,-999.0,66,-99.99,,,-99.99,WSDL version 456,2016-02-06 03:59:00,